Regional Weather Roundup
Issued by NWS Glasgow, MT

Home | Current Version | Previous Version | Text Only | Print | Product List | Glossary On
Versions: 1 2 3 4 5 6 7 8 9 10 11 12 13 14 15 16 17 18 19 20 21 22 23 24 25 26 27 28 29 30 31 32 33 34 35 36 37 38 39 40 41 42 43 44 45 46 47 48 49 50
000
ASUS45 KGGW 031515
RWRGGW
HOURLY REGIONAL WEATHER ROUNDUP FOR NORTHEAST MONTANA
NATIONAL WEATHER SERVICE GLASGOW MONTANA
900 AM MDT THU SEP 03 2015

NOTE: "FAIR" INDICATES FEW OR NO CLOUDS BELOW 12,000 FEET WITH NO
SIGNIFICANT WEATHER AND/OR OBSTRUCTIONS TO VISISBILITY.

NORTHEAST MONTANA


CITY           SKY/WX    TMP DP  RH WIND       PRES   REMARKS
GLASGOW        SUNNY     62  40  44 NW15      29.86R
PLENTYWOOD       N/A     72  38  29 N16G25      N/A
WOLF POINT     MOSUNNY   72  40  31 NW12      29.79R
JORDAN           N/A     66  39  37 NW8       29.86R
WINNETT          N/A     61  37  41 W7G18       N/A
SIDNEY         MOSUNNY   72  48  43 N9          N/A
GLENDIVE       MOSUNNY   72  45  37 N7        29.74R
MALTA            N/A     57  44  62 W6          N/A
SCOBEY           N/A     66  41  40 NW14      29.79
OPHEIM           N/A     57  39  51 NW15      29.61R

FORT PECK REPORTS


CITY           SKY/WX    TMP DP  RH WIND       PRES   REMARKS
THE PINES        N/A     67  37  33 NW7G15      N/A

SOUTHEAST MONTANA


CITY           SKY/WX    TMP DP  RH WIND       PRES   REMARKS
BILLINGS       CLOUDY    63  36  36 E9        29.88R
MILES CITY     PTSUNNY   69  40  34 NW18      29.82R
BAKER          SUNNY     70  45  40 W7        29.75R
LIVINGSTON     MOSUNNY   63  41  44 E10       29.89R

CENTRAL MONTANA


CITY           SKY/WX    TMP DP  RH WIND       PRES   REMARKS
HAVRE          MOSUNNY   58  38  47 NW3       29.93S
LEWISTOWN      MOSUNNY   57  39  51 SW5       29.94F
GREAT FALLS    CLOUDY    56  37  49 E15       29.93S
CUT BANK       CLOUDY    50  46  86 S6        29.95S
HELENA         CLOUDY    60  38  43 W10       29.91R
BUTTE          CLOUDY    50  38  63 S3        29.96F
BOZEMAN        MOSUNNY   58  41  53 SW5       29.89S

WESTERN MONTANA


CITY           SKY/WX    TMP DP  RH WIND       PRES   REMARKS
MISSOULA       CLOUDY    50  49  96 NW10      29.96S
KALISPELL      NOT AVBL

NORTH DAKOTA


CITY           SKY/WX    TMP DP  RH WIND       PRES   REMARKS
WILLISTON      SUNNY     70  54  56 N14       29.69S
DICKINSON      MOSUNNY   80  48  32 W8        29.68S
MINOT          CLOUDY    73  70  90 E6        29.67F FOG
BISMARCK       MOSUNNY   76  67  73 SE13      29.70R

SOUTHERN SASKATCHEWAN


CITY           SKY/WX    TMP DP  RH WIND       PRES   REMARKS
REGINA         PTSUNNY   57  50  77 N14G20    29.78S
MOOSE JAW      MOSUNNY   57  50  77 NW18      29.84R
ESTEVAN        PTSUNNY   72  63  73 N13       29.71R
SWIFT CURRENT  SUNNY     57  43  58 W8        29.91R




USA.gov is the U.S. government's official web portal to all federal, state and local government web resources and services.